Weather History for Spirit of St Louis, MO

Change the Weather History Date:

Wednesday, May 1, 2013

  Actual Average Record
Temperature  
Mean Temperature 67 °F -  
Max Temperature 84 °F 71 °F 86 °F (2007)
Min Temperature 52 °F 48 °F 34 °F (2005)
Cooling Degree Days 2    
Growing Degree Days 17 (Base 50)    
Moisture  
Dew Point 54 °F    
Average Humidity 60    
Maximum Humidity 93    
Minimum Humidity 35    
Precipitation  
Precipitation 0.00 in - - ()
Sea Level Pressure  
Sea Level Pressure 30.01 in    
Wind  
Wind Speed 4 mph (SE)    
Max Wind Speed 13 mph    
Max Gust Speed 18 mph    
Visibility 10 miles    
Events      
Averages and records for this station are not official NWS values.
T = Trace of Precipitation, MM = Missing Value Source: NWS Daily Summary

Daily Weather History Graph

Daily Weather History Graph

Search for Another Location

Airport:

Trip Planner

Search our weather history database for the weather conditions in past years. The results will help you decide how hot, cold, wet, or windy it might be!

Date:

Astronomy

May. 01, 2013 Rise Set
Actual Time 6:04 AM CDT 7:55 PM CDT
Civil Twilight 5:36 AM CDT 8:23 PM CDT
Nautical Twilight 5:01 AM CDT 8:58 PM CDT
Astronomical Twilight 4:24 AM CDT 9:36 PM CDT
Moon 1:04 AM CDT (5/1) 11:43 AM CDT (5/1)
Length of Visible Light 14h 47m
Length of Day
13h 50m
Waning Gibbous, 59% of the Moon is Illuminated
May 1
Waning Gibbous
May 2
Last Quarter
May 9
New
May 17
First Quarter
May 24
Full

Hourly Weather History & Observations

Time (CDT) Temp. Heat Index Dew Point Humidity Pressure Visibility Wind Dir Wind Speed Gust Speed Precip Events Conditions
12:54 AM 69.1 °F - 53.1 °F 57% 29.93 in 10.0 mi SW 4.6 mph - N/A   Clear
1:54 AM 60.1 °F - 53.1 °F 78% 29.94 in 10.0 mi SE 3.5 mph - N/A   Clear
2:54 AM 57.9 °F - 53.1 °F 84% 29.94 in 10.0 mi South 3.5 mph - N/A   Clear
3:54 AM 54.0 °F - 50.0 °F 86% 29.96 in 10.0 mi Calm Calm - N/A   Clear
4:54 AM 54.0 °F - 51.1 °F 90% 29.98 in 10.0 mi Calm Calm - N/A   Clear
5:54 AM 52.0 °F - 50.0 °F 93% 30.00 in 10.0 mi Calm Calm - N/A   Clear
6:54 AM 54.0 °F - 52.0 °F 93% 30.02 in 10.0 mi Calm Calm - N/A   Clear
7:54 AM 61.0 °F - 55.9 °F 83% 30.03 in 10.0 mi Calm Calm - N/A   Clear
8:54 AM 70.0 °F - 57.9 °F 65% 30.03 in 10.0 mi Calm Calm - N/A   Partly Cloudy
9:54 AM 77.0 °F - 52.0 °F 42% 30.03 in 10.0 mi Variable 5.8 mph - N/A   Partly Cloudy
10:54 AM 78.1 °F - 52.0 °F 40% 30.03 in 10.0 mi SE 8.1 mph - N/A   Scattered Clouds
11:54 AM 81.0 °F - 51.1 °F 35% 30.03 in 10.0 mi South 8.1 mph - N/A   Partly Cloudy
12:54 PM 82.0 °F - 52.0 °F 35% 30.02 in 10.0 mi SSE 11.5 mph 17.3 mph N/A   Scattered Clouds
1:54 PM 81.0 °F 80.5 °F 54.0 °F 39% 30.03 in 10.0 mi East 11.5 mph - N/A   Mostly Cloudy
2:54 PM 82.0 °F 81.4 °F 55.0 °F 39% 30.02 in 10.0 mi ESE 12.7 mph 18.4 mph N/A   Mostly Cloudy
3:54 PM 82.0 °F 81.4 °F 55.0 °F 39% 30.02 in 10.0 mi South 8.1 mph - N/A   Mostly Cloudy
4:54 PM 82.0 °F 81.4 °F 55.0 °F 39% 30.01 in 10.0 mi Variable 6.9 mph - N/A   Mostly Cloudy
5:54 PM 81.0 °F 80.8 °F 55.9 °F 42% 30.01 in 10.0 mi ESE 8.1 mph - N/A   Mostly Cloudy
6:54 PM 80.1 °F 80.4 °F 57.0 °F 45% 30.01 in 10.0 mi SE 8.1 mph - N/A   Scattered Clouds
7:54 PM 78.1 °F - 55.0 °F 45% 30.02 in 10.0 mi ESE 6.9 mph - N/A   Mostly Cloudy
8:54 PM 75.0 °F - 55.0 °F 50% 30.04 in 10.0 mi SE 4.6 mph - N/A   Clear
9:54 PM 70.0 °F - 57.0 °F 63% 30.06 in 10.0 mi Calm Calm - N/A   Clear
10:54 PM 64.0 °F - 57.9 °F 80% 30.05 in 10.0 mi East 3.5 mph - N/A   Clear
11:54 PM 62.1 °F - 57.9 °F 86% 30.06 in 10.0 mi Calm Calm - N/A   Clear